Regional Weather Roundup
Issued by NWS

Home | Current Version | Previous Version | Graphics & Text | Print | Product List | Glossary On
Versions: 1 2 3 4 5 6 7 8 9 10 11 12 13 14 15 16 17 18 19 20 21 22 23 24 25 26 27 28 29 30 31 32 33 34 35 36 37 38 39 40 41 42 43 44 45 46 47 48 49 50
000
ASUS45 KABQ 020210
RWRNM
NEW MEXICO REGIONAL WEATHER ROUNDUP
NATIONAL WEATHER SERVICE ALBUQUERQUE NM
800 PM MDT SAT AUG 01 2015

NOTE: "FAIR" MEANS FEW OR NO CLOUDS BELOW 12,000 FEET AGL WITH NO
       SIGNIFICANT WEATHER OR OBSTRUCTIONS TO VISION.

      THIS PRODUCT IS RELEASED AS TWO VERSIONS.  ONE VERSION NEAR
      THE TOP OF THE HOUR CONTAINING PRELIMINARY DATA FROM ALBUQUERQUE
      AND OTHER STATIONS.  A FINAL VERSION WITH ADDITIONAL DATA IS
      ISSUED ABOUT 10 MINUTES AFTER THE HOUR.

NMZ501-503-504-510>518-020300-
NORTHWEST PLATEAU/NORTHCENTRAL MOUNTAINS

CITY           SKY/WX    TMP DP  RH WIND       PRES   REMARKS
FARMINGTON     CLEAR     77  54  44 E6        30.13F
LOS ALAMOS     CLOUDY    65  55  71 CALM      30.31R
SANTA FE       MOCLDY    69  55  60 N10       30.23R
TAOS           CLOUDY    61  48  63 S7        30.29F
ANGEL FIRE     FAIR      55  54  94 CALM      30.40F

$$
NMZ402-403-502-505>509-020300-
WESTCENTRAL MOUNTAINS/SOUTHWEST MOUNTAINS

CITY           SKY/WX    TMP DP  RH WIND       PRES   REMARKS
GALLUP         MOCLDY    69  59  70 E5        30.23S
GRANTS         TSTM      64  59  83 NW13G23   30.31R
SILVER CITY      N/A     73  57  56 N15       30.17R

$$
NMZ407-409-411-412-020300-
SOUTHERN DESERTS

CITY           SKY/WX    TMP DP  RH WIND       PRES   REMARKS
LORDSBURG      FAIR      79  57  47 N3        30.06S
DEMING         CLOUDY    83  57  41 NW7       30.06R
LAS CRUCES     CLEAR     82  58  43 SE3       30.06R
HOLLOMAN AFB   PTCLDY    89  47  23 W5        30.00R
ALAMOGORDO     PTCLDY    88  48  25 NW3       30.02S
T OR C         MOCLDY    84  52  33 W5        30.08R

$$
NMZ519>523-020300-
CENTRAL VALLEYS/CENTRAL HIGHLANDS

CITY           SKY/WX    TMP DP  RH WIND       PRES   REMARKS
ALBUQUERQUE    CLOUDY    80  53  39 N14       30.14R
DOUBLE EAGLE   MOCLDY    73  57  56 N15       30.20R
MORIARTY ARPT    N/A     71  57  61 NE3       30.23R
CLINES CORNERS LGT RAIN  62  58  86 E8        30.30R
BELEN          CLOUDY    70  59  67 NW24G33   30.15R
SOCORRO        FAIR      81  56  42 CALM      30.08R

$$
NMZ524>526-539-540-020300-
SOUTHCENTRAL MOUNTAINS

CITY           SKY/WX    TMP DP  RH WIND       PRES   REMARKS
RUIDOSO          N/A    N/A N/A N/A MISG        N/A

$$
NMZ527>531-020300-
NORTHEAST HIGHLANDS/NORTHEAST PLAINS

CITY           SKY/WX    TMP DP  RH WIND       PRES   REMARKS
LAS VEGAS      CLOUDY    65  55  70 N7        30.27S
RATON          CLOUDY    66  52  60 N13       30.20F
CLAYTON        MOCLDY    76  64  66 W3        30.11R

$$
NMZ532>537-020300-
EASTCENTRAL PLAINS

CITY           SKY/WX    TMP DP  RH WIND       PRES   REMARKS
TUCUMCARI      CLOUDY    74  62  66 W15       30.05R
CANNON AFB     MOCLDY    78  64  62 S7        30.09R
CLOVIS AIRPORT MOCLDY    77  63  61 S9        30.09R

$$
NMZ028-029-538-020300-
SOUTHEAST PLAINS

CITY           SKY/WX    TMP DP  RH WIND       PRES   REMARKS
ROSWELL        PTCLDY    89  56  32 N5        30.01R
ARTESIA        CLEAR     90  55  31 NE6       30.00R
CARLSBAD       CLOUDY    83  65  54 W10       29.98R
HOBBS          CLOUDY    77  63  61 E12       30.06F


$$


USA.gov is the U.S. government's official web portal to all federal, state and local government web resources and services.